Time,TemperatureF,DewpointF,PressureIn,WindDirection,WindDirectionDegrees,WindSpeedMPH,WindSpeedGustMPH,Humidity,HourlyPrecipIn,Conditions,Clouds,dailyrainin,SoftwareType,DateUTC
2014-10-02 00:03:00,66.4,33.2,-100.00,North,-999,-999.0,-999.0,29,-99.99,,---,-99.99,VWS V14.01,2014-10-02 07:03:00,
2014-10-02 00:08:00,66.2,33.0,-100.00,North,-999,-999.0,-999.0,29,-99.99,,---,-99.99,VWS V14.01,2014-10-02 07:08:00,
2014-10-02 00:13:00,66.0,32.9,-100.00,North,-999,-999.0,-999.0,29,-99.99,,---,-99.99,VWS V14.01,2014-10-02 07:13:00,
2014-10-02 00:18:00,66.0,32.9,-100.00,North,-999,-999.0,-999.0,29,-99.99,,---,-99.99,VWS V14.01,2014-10-02 07:18:00,
2014-10-02 00:23:00,65.8,32.7,-100.00,North,-999,-999.0,-999.0,29,-99.99,,---,-99.99,VWS V14.01,2014-10-02 07:23:00,
2014-10-02 00:28:00,65.7,32.6,-100.00,North,-999,-999.0,-999.0,29,-99.99,,---,-99.99,VWS V14.01,2014-10-02 07:28:00,
2014-10-02 00:33:00,65.5,32.4,-100.00,North,-999,-999.0,-999.0,29,-99.99,,---,-99.99,VWS V14.01,2014-10-02 07:33:00,
2014-10-02 00:38:00,65.7,33.4,-100.00,North,-999,-999.0,-999.0,30,-99.99,,---,-99.99,VWS V14.01,2014-10-02 07:38:00,
2014-10-02 00:43:00,65.5,33.3,-100.00,North,-999,-999.0,-999.0,30,-99.99,,---,-99.99,VWS V14.01,2014-10-02 07:43:00,
2014-10-02 00:48:00,65.1,32.1,-100.00,North,-999,-999.0,-999.0,29,-99.99,,---,-99.99,VWS V14.01,2014-10-02 07:48:00,
2014-10-02 00:53:00,64.8,32.6,-100.00,North,-999,-999.0,-999.0,30,-99.99,,---,-99.99,VWS V14.01,2014-10-02 07:53:00,
2014-10-02 00:58:00,64.8,32.6,-100.00,North,-999,-999.0,-999.0,30,-99.99,,---,-99.99,VWS V14.01,2014-10-02 07:58:00,
2014-10-02 01:03:00,64.6,32.5,-100.00,North,-999,-999.0,-999.0,30,-99.99,,---,-99.99,VWS V14.01,2014-10-02 08:03:00,
2014-10-02 01:08:00,64.6,32.5,-100.00,North,-999,-999.0,-999.0,30,-99.99,,---,-99.99,VWS V14.01,2014-10-02 08:08:00,
2014-10-02 01:13:00,64.4,32.3,-100.00,North,-999,-999.0,-999.0,30,-99.99,,---,-99.99,VWS V14.01,2014-10-02 08:13:00,
2014-10-02 01:18:00,64.4,32.3,-100.00,North,-999,-999.0,-999.0,30,-99.99,,---,-99.99,VWS V14.01,2014-10-02 08:18:00,
2014-10-02 01:23:00,64.2,33.0,-100.00,North,-999,-999.0,-999.0,31,-99.99,,---,-99.99,VWS V14.01,2014-10-02 08:23:00,
2014-10-02 01:28:00,64.2,33.0,-100.00,North,-999,-999.0,-999.0,31,-99.99,,---,-99.99,VWS V14.01,2014-10-02 08:28:00,
2014-10-02 01:33:00,64.0,32.8,-100.00,North,-999,-999.0,-999.0,31,-99.99,,---,-99.99,VWS V14.01,2014-10-02 08:33:00,
2014-10-02 01:38:00,64.0,32.8,-100.00,North,-999,-999.0,-999.0,31,-99.99,,---,-99.99,VWS V14.01,2014-10-02 08:38:00,
2014-10-02 01:43:00,63.9,33.5,-100.00,North,-999,-999.0,-999.0,32,-99.99,,---,-99.99,VWS V14.01,2014-10-02 08:43:00,
2014-10-02 01:48:00,63.7,33.3,-100.00,North,-999,-999.0,-999.0,32,-99.99,,---,-99.99,VWS V14.01,2014-10-02 08:48:00,
2014-10-02 01:53:00,63.7,34.1,-100.00,North,-999,-999.0,-999.0,33,-99.99,,---,-99.99,VWS V14.01,2014-10-02 08:53:00,
2014-10-02 01:58:00,63.5,33.9,-100.00,North,-999,-999.0,-999.0,33,-99.99,,---,-99.99,VWS V14.01,2014-10-02 08:58:00,
2014-10-02 02:03:00,63.3,33.8,-100.00,North,-999,-999.0,-999.0,33,-99.99,,---,-99.99,VWS V14.01,2014-10-02 09:03:00,
2014-10-02 02:08:00,63.1,33.6,-100.00,North,-999,-999.0,-999.0,33,-99.99,,---,-99.99,VWS V14.01,2014-10-02 09:08:00,
2014-10-02 02:13:00,62.8,33.3,-100.00,North,-999,-999.0,-999.0,33,-99.99,,---,-99.99,VWS V14.01,2014-10-02 09:13:00,
2014-10-02 02:18:00,62.6,33.1,-100.00,North,-999,-999.0,-999.0,33,-99.99,,---,-99.99,VWS V14.01,2014-10-02 09:18:00,
2014-10-02 02:23:00,62.2,33.5,-100.00,North,-999,-999.0,-999.0,34,-99.99,,---,-99.99,VWS V14.01,2014-10-02 09:23:00,
2014-10-02 02:28:00,62.1,33.4,-100.00,North,-999,-999.0,-999.0,34,-99.99,,---,-99.99,VWS V14.01,2014-10-02 09:28:00,
2014-10-02 02:30:00,62.1,33.4,-100.00,North,-999,-999.0,-999.0,34,-99.99,,---,-99.99,VWS V14.01,2014-10-02 09:30:00,
2014-10-02 02:35:00,61.9,33.2,-100.00,North,-999,-999.0,-999.0,34,-99.99,,---,-99.99,VWS V14.01,2014-10-02 09:35:00,
2014-10-02 02:40:00,61.7,33.1,-100.00,North,-999,-999.0,-999.0,34,-99.99,,---,-99.99,VWS V14.01,2014-10-02 09:40:00,
2014-10-02 02:46:00,61.7,33.1,-100.00,North,-999,-999.0,-999.0,34,-99.99,,---,-99.99,VWS V14.01,2014-10-02 09:46:00,
2014-10-02 02:52:00,61.7,33.1,-100.00,North,-999,-999.0,-999.0,34,-99.99,,---,-99.99,VWS V14.01,2014-10-02 09:52:00,
2014-10-02 02:57:00,61.5,32.9,-100.00,North,-999,-999.0,-999.0,34,-99.99,,---,-99.99,VWS V14.01,2014-10-02 09:57:00,
2014-10-02 03:03:00,61.3,32.8,-100.00,North,-999,-999.0,-999.0,34,-99.99,,---,-99.99,VWS V14.01,2014-10-02 10:03:00,
2014-10-02 03:08:00,61.3,32.8,-100.00,North,-999,-999.0,-999.0,34,-99.99,,---,-99.99,VWS V14.01,2014-10-02 10:08:00,
2014-10-02 03:13:00,61.2,32.6,-100.00,North,-999,-999.0,-999.0,34,-99.99,,---,-99.99,VWS V14.01,2014-10-02 10:13:00,
2014-10-02 03:18:00,61.2,32.6,-100.00,North,-999,-999.0,-999.0,34,-99.99,,---,-99.99,VWS V14.01,2014-10-02 10:18:00,
2014-10-02 03:23:00,61.2,32.6,-100.00,North,-999,-999.0,-999.0,34,-99.99,,---,-99.99,VWS V14.01,2014-10-02 10:23:00,
2014-10-02 03:28:00,61.2,32.6,-100.00,North,-999,-999.0,-999.0,34,-99.99,,---,-99.99,VWS V14.01,2014-10-02 10:28:00,
2014-10-02 03:33:00,61.0,32.4,-100.00,North,-999,-999.0,-999.0,34,-99.99,,---,-99.99,VWS V14.01,2014-10-02 10:33:00,
2014-10-02 03:38:00,60.8,32.3,-100.00,North,-999,-999.0,-999.0,34,-99.99,,---,-99.99,VWS V14.01,2014-10-02 10:38:00,
2014-10-02 03:43:00,60.6,32.8,-100.00,North,-999,-999.0,-999.0,35,-99.99,,---,-99.99,VWS V14.01,2014-10-02 10:43:00,
2014-10-02 03:48:00,60.4,32.7,-100.00,North,-999,-999.0,-999.0,35,-99.99,,---,-99.99,VWS V14.01,2014-10-02 10:48:00,
2014-10-02 03:53:00,60.4,32.7,-100.00,North,-999,-999.0,-999.0,35,-99.99,,---,-99.99,VWS V14.01,2014-10-02 10:53:00,
2014-10-02 03:58:00,60.3,32.5,-100.00,North,-999,-999.0,-999.0,35,-99.99,,---,-99.99,VWS V14.01,2014-10-02 10:58:00,
2014-10-02 04:03:00,60.4,32.7,-100.00,North,-999,-999.0,-999.0,35,-99.99,,---,-99.99,VWS V14.01,2014-10-02 11:03:00,
2014-10-02 04:08:00,60.4,32.7,-100.00,North,-999,-999.0,-999.0,35,-99.99,,---,-99.99,VWS V14.01,2014-10-02 11:08:00,
2014-10-02 04:13:00,60.1,32.4,-100.00,North,-999,-999.0,-999.0,35,-99.99,,---,-99.99,VWS V14.01,2014-10-02 11:13:00,
2014-10-02 04:18:00,60.1,32.4,-100.00,North,-999,-999.0,-999.0,35,-99.99,,---,-99.99,VWS V14.01,2014-10-02 11:18:00,
2014-10-02 04:23:00,59.9,32.2,-100.00,North,-999,-999.0,-999.0,35,-99.99,,---,-99.99,VWS V14.01,2014-10-02 11:23:00,
2014-10-02 04:28:00,59.9,32.2,-100.00,North,-999,-999.0,-999.0,35,-99.99,,---,-99.99,VWS V14.01,2014-10-02 11:28:00,